PAPGPAJN

Guest
Details From PAPG - PETERSBURG JAMES A JOHNSON
To PAJN - Juneau Intl
Flight Number -
Tags generated
Created
Modified
Stats Distance 117 nm / 216 km
Max Altitude 7,900 ft / 2,408 m
Waypoints 3
Social Downloads 2
Likes 0
Share VATSIM

Download

Looking for another format? Having issues loading an existing format? Contact us
Advertisement - Login to hide

Notes

Basic altitude profile: - Ascent Rate: 2500ft/min - Ascent Speed: 250kts - Cruise Altitude: 35000ft - Cruise Speed: 420kts - Descent Rate: 1500ft/min - Descent Speed: 250kts Options: - Use NATs: yes - Use PACOTS: yes - Use low airways: yes - Use high airways: yes

Route

PAPG HOODS PAJN

ID Type Via Altitude Latitude Longitude Leg Dist Tot Dist Heading (true) Name
O PAPG APT - 0 ft / 0 m 56.80165˚ -132.94529˚ - 0 nm - PETERSBURG JAMES A JOHNSON
HOODS FIX - 7,900 ft / 2,408 m 57.74293˚ -134.68157˚ 79 nm 79 nm 316° / 314° -
O PAJN APT - 0 ft / 0 m 58.35496˚ -134.57628˚ 36 nm 116 nm 5° / 5° Juneau Intl

Altitude Profile

Advertisement - Login to hide

PAPG

Details ICAO PAPG (PSG)
Name PETERSBURG JAMES A JOHNSON
Region USA (Alaska)
Timezone America/Juneau (UTC-8.0)
Stats Elevation 105 ft / 32 m (AMSL)
Location 56.801651° -132.945289°
Runways 1
Magnetic Variation 18.750° E

METAR

PAPG 251856Z 00000KT 10SM -RA OVC026 09/05 A2993 RMK AO2 RAE1758B27 SLP137 P0000 T00940050

Decode

TAF

PAPG 251722Z 2518/2618 06005KT P6SM -RA SCT025 OVC040 FM260100 09004KT P6SM -SHRA BKN025 OVC040 FM260600 22003KT P6SM VCSH SCT025 BKN040 OVC060 AMD LTD TO CLD VIS AND WIND 2606/2615

Decode

Departure Runways

ID Width Length Bearing (true) Bearing (mag) Surface Threshold Offset Overrun Length
04 150 ft / 46 m 5,982 ft / 1,823 m 70.70° 51.95° Asphalt 0 ft / 0 m 0 ft / 0 m
22 150 ft / 46 m 5,982 ft / 1,823 m 250.73° 231.98° Asphalt 0 ft / 0 m 0 ft / 0 m

PAJN

Details ICAO PAJN (JNU)
Name Juneau Intl
Region USA (Alaska)
Timezone America/Juneau (UTC-8.0)
Stats Elevation 21 ft / 6 m (AMSL)
Location 58.354964° -134.576278°
Runways 1
Magnetic Variation 19.019° E

METAR

PAJN 251853Z 11010KT 10SM -RA FEW011 BKN045 OVC075 09/07 A2988

Decode

TAF

PAJN 251722Z 2518/2618 07011G16KT P6SM -RA FEW035 BKN050 OVC100 FM260000 11012KT P6SM -SHRA BKN040 OVC060 FM260600 10010KT P6SM -SHRA BKN025 OVC040

Decode

Destination Runways

ID Width Length Bearing (true) Bearing (mag) Surface Threshold Offset Overrun Length
08 150 ft / 46 m 8,430 ft / 2,570 m 104.87° 85.85° Asphalt 0 ft / 0 m 450 ft / 137 m
26 150 ft / 46 m 8,430 ft / 2,570 m 284.90° 265.88° Asphalt 0 ft / 0 m 225 ft / 69 m

Approach Navaids

Runway Type Ident Frequency Range Bearing (true) Bearing (mag) Slope Elevation
08 Localiser IJDL 109.90 MHz 18 nm / 33 km 84.92° 65.90° - 21 ft / 6 m (AMSL)
08 DME IJDL 109.90 MHz 18 nm / 33 km - - - 175 ft / 53 m (AMSL)

Popular Alternatives